Simultaneous Nadir Overpasses (SNOs) Predictions

Prediction of SNOs between AQUA and GOES-15 Satellite Orbit:

Table of predicted SNOs for the next 14.0 days since TLE Epoch: 1/25/2014
Index Date Time (AQUA) AQUA Lat,Lon GOES-15 Lat,Lon Distance(km) Time Diff (sec)
1 01/26/2014 22:29:28 0.49,-133.47 0.11,-135.29 206.87 80
2 01/27/2014 10:50:43 0.59,-138.62 -0.12,-135.29 378.82 80
3 01/29/2014 10:38:32 -0.01,-135.66 -0.11,-135.31 40.29 80
4 01/31/2014 10:26:22 -0.64,-132.70 -0.11,-135.33 298.12 80
5 01/31/2014 22:47:46 -0.41,-137.90 0.11,-135.33 291.86 80
6 02/02/2014 22:35:34 0.18,-134.94 0.11,-135.35 46.38 80
7 02/04/2014 22:23:22 0.80,-131.97 0.11,-135.36 384.39 80
8 02/05/2014 10:44:38 0.26,-137.14 -0.11,-135.36 201.17 80
9 02/07/2014 10:32:26 -0.39,-134.18 -0.10,-135.37 136.44 80
10 02/07/2014 22:53:49 -0.76,-139.35 0.10,-135.36 454.13 80




NCC Satellite Simultaneous Nadir Overpasses (SNOs) Prediction Service
